Satellite: FO-70
Catalog number: 37380
Epoch time:      12179.47554455
Element set:    0223
Inclination:      071.9743 deg
RA of node:       289.8278 deg
Eccentricity:    0.0018623
Arg of perigee:   295.0880 deg
Mean anomaly:     064.8372 deg
Mean motion:   14.76843679 rev/day
Decay rate:       2.08e-06 rev/day^2
Epoch rev:           03750
Checksum:              341

Satellite: ALMASAT-1
Catalog number: 38078
Epoch time:      12222.39387379
Element set:     459
Inclination:      069.4880 deg
RA of node:       196.5988 deg
Eccentricity:    0.0751909
Arg of perigee:   182.2093 deg
Mean anomaly:     177.5651 deg
Mean motion:   14.10849374 rev/day
Decay rate:     1.6813e-04 rev/day^2
Epoch rev:            2505
Checksum:              352

Satellite: XATCOBEO
Catalog number: 38082
Epoch time:      12221.95299609
Element set:    0459
Inclination:      069.4862 deg
RA of node:       194.2561 deg
Eccentricity:    0.0721762
Arg of perigee:   180.9884 deg
Mean anomaly:     178.9988 deg
Mean motion:   14.20006668 rev/day
Decay rate:     4.0858e-04 rev/day^2
Epoch rev:           02507
Checksum:              351

/EX
SB KEPS @ AMSAT  $ORB12222.W
Orbital Elements  12222.WEATHER

HR AMSAT ORBITAL ELEMENTS FOR WEATHER SATELLITES
FROM WA5QGD FORT WORTH,TX August 9, 2012
Send SUBSCRIBE KEPS/UNSUBSCRIBE KEPS to majordomo at amsat.org only
BID: ORB12222.W
TO ALL RADIO AMATEURS BT

Satellite: NOAA-10
Catalog number: 16969
Epoch time:      12222.70856501
Element set:      21
Inclination:      098.5780 deg
RA of node:       250.8048 deg
Eccentricity:    0.0013119
Arg of perigee:   078.8061 deg
Mean anomaly:     281.4590 deg
Mean motion:   14.27567928 rev/day
Decay rate:       -3.0e-07 rev/day^2
Epoch rev:           34750
Checksum:              299

Satellite: NOAA-11
Catalog number: 19531
Epoch time:      12222.74472483
Element set:      16
Inclination:      098.7312 deg
RA of node:       306.7756 deg
Eccentricity:    0.0012069
Arg of perigee:   071.9309 deg
Mean anomaly:     288.3196 deg
Mean motion:   14.14975112 rev/day
Decay rate:      -1.27e-06 rev/day^2
Epoch rev:           23208
Checksum:              295

Satellite: NOAA-12
Catalog number: 21263
Epoch time:      12222.88332183
Element set:     502
Inclination:      098.7264 deg
RA of node:       244.2918 deg
Eccentricity:    0.0014754
Arg of perigee:   046.9266 deg
Mean anomaly:     313.3146 deg
Mean motion:   14.25511095 rev/day
Decay rate:        5.5e-07 rev/day^2
Epoch rev:           10420
Checksum:              271

Satellite: MET-3/5
Catalog number: 21655
Epoch time:      12222.78235332
Element set:     476
Inclination:      082.5566 deg
RA of node:       114.3336 deg
Eccentricity:    0.0013360
Arg of perigee:   183.7087 deg
Mean anomaly:     176.3938 deg
Mean motion:   13.17042721 rev/day
Decay rate:      -1.97e-06 rev/day^2
Epoch rev:             894
Checksum:              300

Satellite: MET-2/21
Catalog number: 22782
Epoch time:      12221.87137034
Element set:    0496
Inclination:      082.5500 deg
RA of node:       350.7063 deg
Eccentricity:    0.0022855
Arg of perigee:   008.9508 deg
Mean anomaly:     351.2071 deg
Mean motion:   13.83686963 rev/day
Decay rate:        6.8e-07 rev/day^2
Epoch rev:           95645
Checksum:              308

Satellite: OKEAN-4
Catalog number: 23317
Epoch time:      12221.90009216
Element set:    0002
Inclination:      082.5421 deg
RA of node:       341.9170 deg
Eccentricity:    0.0021440
Arg of perigee:   173.0214 deg
Mean anomaly:     187.1304 deg
Mean motion:   14.83883919 rev/day
Decay rate:      1.204e-05 rev/day^2
Epoch rev:           96262
Checksum:              252

Satellite: NOAA-14
Catalog number: 23455
Epoch time:      12222.90006149
Element set:     982
Inclination:      098.8256 deg
RA of node:       305.7208 deg
Eccentricity:    0.0009628
Arg of perigee:   158.3243 deg
Mean anomaly:     201.8334 deg
Mean motion:   14.13866132 rev/day
Decay rate:        9.0e-07 rev/day^2
Epoch rev:           90838
Checksum:              299

Satellite: NOAA-15
Catalog number: 25338
Epoch time:      12221.64448956
Element set:    0359
Inclination:      098.6944 deg
RA of node:       208.0701 deg
Eccentricity:    0.0010013
Arg of perigee:   321.3497 deg
Mean anomaly:     038.6961 deg
Mean motion:   14.25103740 rev/day
Decay rate:       2.22e-06 rev/day^2
Epoch rev:           74032
Checksum:              282

Satellite: RESURS
Catalog number: 25394
Epoch time:      12221.94909267
Element set:    0176
Inclination:      098.3250 deg
RA of node:       207.4203 deg
Eccentricity:    0.0002393
Arg of perigee:   079.0583 deg
Mean anomaly:     281.0868 deg
Mean motion:   14.24291531 rev/day
Decay rate:        3.0e-08 rev/day^2
Epoch rev:           73191
Checksum:              285

Satellite: FENGYUN1
Catalog number: 25730
Epoch time:      12221.95175150
Element set:    0677
Inclination:      098.8481 deg
RA of node:       180.0260 deg
Eccentricity:    0.0017344
Arg of perigee:   211.2101 deg
Mean anomaly:     148.8039 deg
Mean motion:   14.09695817 rev/day
Decay rate:       7.85e-06 rev/day^2
Epoch rev:           68204
Checksum:              293

Satellite: OKEAN-0
Catalog number: 25860
Epoch time:      12221.92981205
Element set:    0725
Inclination:      097.9412 deg
RA of node:       183.5102 deg
Eccentricity:    0.0001860
Arg of perigee:   069.1479 deg
Mean anomaly:     290.9929 deg
Mean motion:   14.74259997 rev/day
Decay rate:       4.69e-06 rev/day^2
Epoch rev:           70234
Checksum:              324

Satellite: NOAA-16
Catalog number: 26536
Epoch time:      12221.65853715
Element set:    0847
Inclination:      099.0900 deg
RA of node:       264.5831 deg
Eccentricity:    0.0009856
Arg of perigee:   297.7180 deg
Mean anomaly:     062.2990 deg
Mean motion:   14.12768456 rev/day
Decay rate:       2.84e-06 rev/day^2
Epoch rev:           61244
Checksum:              327

Satellite: NOAA-17
Catalog number: 27453
Epoch time:      12222.75802113
Element set:     795
Inclination:      098.3338 deg
RA of node:       247.0842 deg
Eccentricity:    0.0011825
Arg of perigee:   004.9182 deg
Mean anomaly:     355.2099 deg
Mean motion:   14.24467758 rev/day
Decay rate:        9.5e-07 rev/day^2
Epoch rev:           52638
Checksum:              318

Satellite: NOAA-18
Catalog number: 28654
Epoch time:      12222.71970645
Element set:     277
Inclination:      099.0508 deg
RA of node:       181.2664 deg
Eccentricity:    0.0014524
Arg of perigee:   008.0146 deg
Mean anomaly:     352.1241 deg
Mean motion:   14.11684408 rev/day
Decay rate:       3.70e-06 rev/day^2
Epoch rev:           37211
Checksum:              281

Satellite: NOAA-19
Catalog number: 33591
Epoch time:      12222.73958278
Element set:     466
Inclination:      098.8653 deg
RA of node:       161.8708 deg
Eccentricity:    0.0013264
Arg of perigee:   228.4095 deg
Mean anomaly:     131.5936 deg
Mean motion:   14.11371569 rev/day
Decay rate:       4.86e-06 rev/day^2
Epoch rev:           18056
Checksum:              335

/EX
SB KEPS @ AMSAT  $ORB12222.M
Orbital Elements  12222.MISC

HR AMSAT ORBITAL ELEMENTS FOR MANNED AND MISCELLANEOUS SATELLITES
FROM WA5QGD FORT WORTH,TX August 9, 2012
Send SUBSCRIBE KEPS/UNSUBSCRIBE KEPS to majordomo at amsat.org only
BID: ORB12222.M
TO ALL RADIO AMATEURS BT

Satellite: HUBBLE
Catalog number: 20580
Epoch time:      12222.92411702
Element set:      50
Inclination:      028.4700 deg
RA of node:       151.8440 deg
Eccentricity:    0.0003341
Arg of perigee:   264.1374 deg
Mean anomaly:     095.9116 deg
Mean motion:   15.02677623 rev/day
Decay rate:      1.816e-05 rev/day^2
Epoch rev:            2282
Checksum:              245

Satellite: ISS
Catalog number: 25544
Epoch time:      12223.04705280
Element set:      89
Inclination:      051.6415 deg
RA of node:       213.3468 deg
Eccentricity:    0.0001411
Arg of perigee:   041.6981 deg
Mean anomaly:     064.8786 deg
Mean motion:   15.55053409 rev/day
Decay rate:     1.0706e-04 rev/day^2
Epoch rev:           78639
Checksum:              288

Satellite: CO-58
Catalog number: 28895
Epoch time:      12222.58353263
Element set:     246
Inclination:      097.9039 deg
RA of node:       086.4907 deg
Eccentricity:    0.0017174
Arg of perigee:   347.4111 deg
Mean anomaly:     012.6686 deg
Mean motion:   14.60701140 rev/day
Decay rate:       6.86e-06 rev/day^2
Epoch rev:           36145
Checksum:              315

Satellite: FALCON
Catalog number: 30776
Epoch time:      12221.70096543
Element set:    0424
Inclination:      035.4342 deg
RA of node:       316.0074 deg
Eccentricity:    0.0001521
Arg of perigee:   108.9406 deg
Mean anomaly:     251.1477 deg
Mean motion:   15.07902286 rev/day
Decay rate:      4.492e-05 rev/day^2
Epoch rev:           29818
Checksum:              276

Satellite: MAST
Catalog number: 31126
Epoch time:      12221.92915517
Element set:    0527
Inclination:      097.8738 deg
RA of node:       229.9464 deg
Eccentricity:    0.0093058
Arg of perigee:   306.9403 deg
Mean anomaly:     052.3308 deg
Mean motion:   14.54221016 rev/day
Decay rate:       6.13e-06 rev/day^2
Epoch rev:           28193
Checksum:              291

Satellite: CAPE1
Catalog number: 31130
Epoch time:      12221.94016685
Element set:    0541
Inclination:      097.8816 deg
RA of node:       226.3098 deg
Eccentricity:    0.0099973
Arg of perigee:   320.5151 deg
Mean anomaly:     038.8790 deg
Mean motion:   14.53020599 rev/day
Decay rate:       8.70e-06 rev/day^2
Epoch rev:           28143
Checksum:              304

